TimePDT,TemperatureF,Dew PointF,Humidity,Sea Level PressureIn,VisibilityMPH,Wind Direction,Wind SpeedMPH,Gust SpeedMPH,PrecipitationIn,Events,Conditions,WindDirDegrees,DateUTC
12:56 AM,45.0,30.0,56,29.73,10.0,NW,18.4,26.5,N/A,,Partly Cloudy,310,2013-04-13 07:56:00
1:56 AM,44.1,30.0,58,29.73,10.0,NW,20.7,33.4,N/A,,Clear,310,2013-04-13 08:56:00
2:56 AM,43.0,28.9,58,29.73,10.0,NW,12.7,24.2,N/A,,Clear,320,2013-04-13 09:56:00
3:56 AM,39.9,27.0,60,29.76,10.0,NW,16.1,21.9,N/A,,Clear,320,2013-04-13 10:56:00
4:56 AM,37.9,25.0,60,29.79,10.0,NNW,11.5,-,N/A,,Clear,340,2013-04-13 11:56:00
5:56 AM,35.1,24.1,64,29.83,10.0,North,10.4,-,N/A,,Clear,10,2013-04-13 12:56:00
6:33 AM,35.6,19.4,52,29.84,10.0,NW,13.8,33.4,N/A,,Clear,320,2013-04-13 13:33:00
6:56 AM,36.0,21.0,55,29.85,10.0,NNW,16.1,24.2,N/A,,Clear,330,2013-04-13 13:56:00
7:56 AM,37.9,21.9,53,29.87,10.0,NW,16.1,25.3,N/A,,Clear,320,2013-04-13 14:56:00
8:56 AM,39.0,21.9,50,29.88,10.0,WNW,21.9,32.2,N/A,,Clear,300,2013-04-13 15:56:00
9:56 AM,41.0,21.9,47,29.90,10.0,WNW,24.2,32.2,N/A,,Clear,290,2013-04-13 16:56:00
10:56 AM,42.1,19.9,41,29.91,10.0,WNW,28.8,36.8,N/A,,Clear,300,2013-04-13 17:56:00
11:56 AM,45.0,14.0,29,29.92,10.0,WNW,27.6,39.1,N/A,,Clear,290,2013-04-13 18:56:00
12:56 PM,46.0,16.0,30,29.92,10.0,WNW,25.3,33.4,N/A,,Clear,290,2013-04-13 19:56:00
1:56 PM,44.1,18.0,35,29.93,10.0,West,25.3,33.4,N/A,,Clear,280,2013-04-13 20:56:00
2:56 PM,46.0,18.0,33,29.94,10.0,West,24.2,33.4,N/A,,Clear,280,2013-04-13 21:56:00
3:56 PM,46.9,19.0,33,29.93,10.0,West,20.7,34.5,N/A,,Clear,280,2013-04-13 22:56:00
4:56 PM,45.0,18.0,34,29.95,10.0,WNW,25.3,38.0,N/A,,Clear,290,2013-04-13 23:56:00
5:56 PM,43.0,23.0,45,29.97,10.0,West,21.9,26.5,N/A,,Scattered Clouds,280,2013-04-14 00:56:00
6:56 PM,39.9,19.9,45,30.00,10.0,WNW,13.8,-,N/A,,Clear,290,2013-04-14 01:56:00
7:56 PM,37.0,21.0,52,30.00,10.0,West,13.8,-,N/A,,Clear,280,2013-04-14 02:56:00
8:56 PM,36.0,21.9,57,30.01,10.0,WNW,12.7,18.4,N/A,,Clear,290,2013-04-14 03:56:00
9:56 PM,34.0,21.0,59,30.03,10.0,West,8.1,-,N/A,,Clear,280,2013-04-14 04:56:00
10:56 PM,33.1,19.9,59,30.04,10.0,West,12.7,-,N/A,,Clear,270,2013-04-14 05:56:00
11:56 PM,33.1,19.9,59,30.03,10.0,West,6.9,-,N/A,,Clear,280,2013-04-14 06:56:00